Location: Colonia Mina de C?rbuni
(46.1667°N, 22.7167°E)
Time: 15:02:37
(UTC+00:00)

Vanguard 1 Rocket - Pass Details

Date: 17 April 2024
Orbit: 650 x 4220 km, 34.3° (Epoch: 22 May)

Event Time Altitude Azimuth Distance (km) Brightness Sun altitude
Rises 20:06:58 0° 255° (WSW) 3,766 10.9 -24.7°
Reaches altitude 10° 20:09:16 10° 247° (WSW) 3,083 10.3 -25.0°
Maximum altitude 20:16:27 41° 179° (S) 2,319 9.0 -25.7°
Enters shadow 20:18:00 39° 161° (SSE) 2,533 9.1 -25.9°
